Theta_e
363 361 356 349 349 346 347 345 340 334 336 347 344 355 352 351 354 355 355 347 342 340 339 337 337 339 341 342 343 344 346 346 346 344 342 341 340 341
358 362 363 354 353 352 350 348 345 341 336 341 343 349 353 352 351 356 355 349 342 340 338 336 335 336 337 338 339 339 340 341 341 341 339 339 340 341
364 362 362 365 357 353 352 350 348 346 340 342 345 352 359 357 356 357 355 355 352 339 338 336 335 334 334 335 335 336 336 337 338 338 338 338 339 340
363 363 363 359 363 363 356 360 355 357 347 354 352 348 357 362 360 358 355 351 351 343 337 336 334 333 332 331 331 332 331 332 333 334 335 336 337 338
362 363 363 364 364 360 360 356 356 357 358 353 351 352 352 354 357 362 361 360 354 346 335 334 332 332 330 328 327 326 326 326 327 328 329 331 334 336
363 364 364 365 365 366 364 365 364 360 358 352 349 348 349 356 352 348 349 351 349 350 346 340 340 335 332 328 327 327 323 322 321 322 323 324 328 331
362 364 365 362 352 356 362 370 372 362 355 351 348 347 347 347 350 350 350 352 356 357 354 355 355 354 351 332 335 332 327 324 321 319 320 319 321 324
360 363 365 356 354 342 340 341 351 367 367 356 352 350 364 361 357 355 353 351 351 360 359 356 359 356 357 357 342 332 330 326 324 320 318 318 319 320
365 362 359 357 356 363 345 338 340 337 339 359 362 363 364 368 370 369 364 362 358 361 365 356 361 358 361 359 336 331 327 325 324 322 318 317 318 317
364 364 367 366 364 360 361 361 362 365 363 357 359 360 363 366 368 366 369 365 363 362 366 353 359 358 360 360 339 332 328 325 322 320 317 316 315 314
362 365 366 367 349 335 360 361 363 363 346 334 337 337 336 334 342 357 352 352 351 354 360 357 357 355 356 357 357 335 328 323 321 319 318 315 312 312
364 368 340 352 335 328 360 360 361 358 359 363 365 353 337 347 332 352 358 353 352 349 363 351 352 353 344 352 352 349 347 322 318 316 317 315 312 322
353 353 356 330 327 325 324 362 359 356 356 364 365 367 367 368 366 368 370 366 353 349 357 356 349 347 344 342 347 346 346 345 340 320 312 313 311 321
356 355 360 324 318 319 326 331 325 331 358 357 359 360 361 362 364 367 371 364 356 353 356 362 355 353 348 343 341 349 344 344 339 333 326 315 311 314
360 350 328 321 315 323 318 322 321 354 358 357 357 358 358 361 365 360 359 361 361 363 362 363 357 355 349 343 338 334 332 337 339 332 327 315 320 321
340 352 348 337 329 340 347 344 356 360 359 357 355 357 360 357 353 357 353 352 352 347 354 354 350 345 336 332 326 328 330 329 334 330 323 319 322 319
351 360 360 359 358 358 359 363 364 363 356 358 353 349 349 350 354 354 349 350 344 341 342 341 347 339 327 326 324 319 320 322 321 318 317 316 318 319
353 360 359 356 355 357 359 359 361 353 355 351 349 352 353 353 351 351 348 343 341 340 339 339 337 337 332 320 321 319 320 319 321 321 321 318 318 322
358 360 360 362 362 360 359 359 357 357 358 355 357 354 352 349 346 345 342 342 340 340 339 339 337 334 330 325 323 311 316 321 321 319 320 320 318 319
354 357 359 360 357 355 357 356 355 354 351 352 353 351 348 345 343 341 341 340 340 339 338 341 337 336 330 327 320 317 305 319 322 324 323 323 322 314
354 354 353 349 349 351 351 350 350 351 351 351 347 346 344 342 341 341 340 324 325 336 336 336 336 320 333 331 325 317 316 306 318 326 327 323 320 319
359 353 348 345 350 345 345 346 347 344 344 342 341 340 341 340 339 340 339 337 332 335 335 340 337 335 334 332 326 325 315 313 310 308 308 311 323 318
350 351 349 347 345 346 346 345 343 341 341 341 340 339 340 339 339 339 336 335 334 333 334 335 335 334 331 332 326 327 326 323 321 314 316 307 309 310
Wind_Speed
7 7 7 5 4 5 5 5 5 6 5 5 4 4 4 4 5 9 11 11 17 16 16 16 16 16 16 15 15 14 14 14 14 12 11 9 10 14
7 7 7 6 5 5 5 5 5 7 8 6 4 5 6 8 6 9 11 10 15 17 17 17 19 19 19 18 18 18 19 19 17 13 14 12 14 10
8 8 9 8 7 6 6 6 7 7 9 9 8 7 8 9 11 9 10 11 11 20 19 20 20 20 21 22 22 24 22 21 18 16 16 15 14 13
11 11 10 9 10 9 8 7 8 7 9 11 10 10 11 10 10 11 11 12 13 10 21 21 22 24 24 23 25 24 24 23 19 19 18 16 15 14
12 12 11 11 11 9 9 9 9 9 10 11 12 10 11 10 10 11 10 12 12 14 13 18 20 21 22 23 26 24 26 24 21 20 19 17 15 15
13 13 13 13 13 12 12 12 11 10 10 11 12 12 11 10 10 11 11 11 11 10 10 13 13 21 25 24 27 26 24 21 22 22 21 19 17 17
14 13 14 15 12 12 11 11 10 11 11 11 11 11 11 11 10 11 14 13 11 10 12 11 12 12 12 22 21 23 23 20 21 22 22 21 20 20
14 14 15 11 13 13 13 14 14 12 12 12 13 13 12 12 12 13 14 15 16 11 13 13 13 15 14 13 12 19 18 23 24 24 23 24 24 23
14 14 15 13 14 16 15 18 17 17 17 16 17 15 16 13 14 14 15 15 15 13 10 16 13 12 12 13 14 14 17 17 21 22 24 25 27 26
15 15 15 15 14 14 15 16 16 15 15 13 17 17 16 14 13 13 13 15 14 12 11 16 13 14 13 13 7 13 15 18 18 19 24 23 24 25
17 17 17 17 15 13 16 17 17 15 14 15 17 18 16 14 14 13 11 12 11 13 9 13 14 12 11 12 15 15 16 18 18 21 24 24 22 22
15 16 16 19 12 12 15 16 16 15 15 16 14 10 13 12 15 13 12 11 11 8 5 4 9 9 9 8 6 7 4 15 17 18 22 25 25 16
14 13 13 19 21 20 15 16 15 12 14 12 13 11 10 10 10 9 10 10 8 9 9 7 6 6 4 8 4 5 9 9 6 8 18 26 28 21
14 12 12 12 16 16 13 15 13 13 13 12 12 10 11 10 9 8 10 3 7 12 12 14 10 11 11 13 14 8 5 8 8 10 10 11 19 18
13 11 5 4 8 9 14 13 10 10 11 11 11 11 8 8 7 4 4 8 11 14 12 11 10 11 11 11 12 16 13 7 7 7 7 11 14 13
17 14 11 7 5 7 6 9 10 11 11 9 8 8 7 2 4 5 5 8 9 9 7 5 8 9 11 10 9 12 14 8 3 4 6 9 9 13
12 11 11 12 11 11 11 12 10 8 9 9 7 5 5 6 6 4 5 9 7 7 6 7 7 8 5 6 8 8 8 5 4 9 11 11 9 11
9 11 8 7 8 10 9 7 7 8 8 6 6 7 6 5 6 6 7 5 5 5 5 5 6 3 6 6 13 6 6 5 4 6 8 11 10 8
9 8 9 9 8 7 7 8 7 6 7 6 6 6 5 6 6 8 5 3 6 4 4 3 3 3 4 6 4 14 5 4 5 6 6 6 9 8
6 7 7 6 5 5 5 5 4 5 5 7 8 8 8 7 7 6 5 6 5 5 4 2 2 2 5 4 2 4 10 4 6 9 11 9 6 11
7 6 5 4 4 5 5 5 6 7 7 6 7 7 7 6 6 7 5 1 0 7 6 4 3 3 8 7 5 4 4 11 3 8 8 10 10 9
5 6 6 6 6 5 6 6 7 6 7 7 7 6 6 6 7 8 7 5 6 7 7 2 6 7 3 3 3 9 6 2 4 10 12 9 9 9
4 6 5 5 6 6 6 5 6 7 7 7 6 6 7 7 5 6 5 6 7 7 6 6 6 6 6 4 6 8 11 11 9 6 2 9 9 10
Wind_Direction
201 214 241 234 227 245 246 262 282 288 285 159 261 148 279 252 241 247 241 214 210 217 218 220 222 222 222 223 226 229 230 231 228 224 232 240 244 226
227 199 233 240 217 234 249 253 256 270 280 281 249 286 309 303 259 226 251 246 206 218 224 225 224 222 223 222 223 226 228 228 230 219 220 220 222 223
235 229 224 245 253 239 228 245 250 252 267 274 279 282 252 266 285 268 249 254 252 210 218 223 230 229 225 223 222 224 228 227 218 216 217 220 225 203
231 231 231 226 223 244 257 246 261 261 265 271 278 282 271 269 267 276 274 277 274 238 209 220 225 227 227 225 226 223 223 225 213 213 215 214 209 205
230 230 231 231 233 246 235 249 235 233 242 257 274 278 281 284 279 270 262 266 265 267 213 219 226 232 234 234 235 226 222 221 210 208 206 205 203 195
231 232 232 233 237 234 236 241 247 262 262 257 266 272 271 277 270 278 276 267 275 282 274 255 241 226 230 231 234 233 235 233 214 207 201 197 192 187
237 234 233 237 238 241 245 234 244 242 251 260 266 271 275 276 284 295 296 290 282 275 275 268 268 267 240 226 242 244 247 239 231 218 203 194 184 181
237 239 243 230 230 233 240 255 266 264 254 267 276 278 282 276 273 278 291 297 298 293 286 286 290 281 273 267 259 209 225 235 232 221 208 196 182 181
235 237 242 241 222 244 227 227 242 245 243 262 268 264 276 280 285 285 282 285 284 301 313 287 285 280 287 284 241 199 211 223 229 225 213 198 187 176
243 236 239 249 252 252 250 252 249 246 232 231 244 258 262 267 273 283 291 292 287 282 274 278 289 280 285 285 274 203 212 221 224 214 208 199 188 173
242 242 243 244 242 219 246 258 261 261 262 241 246 258 259 252 258 281 278 276 280 287 293 278 289 290 295 294 289 231 208 222 220 209 201 194 183 158
234 238 233 246 247 209 236 251 257 261 268 275 275 244 247 252 238 245 264 271 281 289 316 302 290 310 291 292 299 286 237 227 225 205 197 186 172 171
238 243 240 208 221 231 223 250 259 278 273 271 273 274 278 268 256 234 246 266 264 266 292 290 293 286 252 301 270 269 264 270 218 197 200 188 179 176
243 245 245 187 203 220 225 241 250 259 265 269 267 267 267 270 284 285 276 268 237 257 280 284 285 294 297 302 302 304 255 247 206 207 197 193 176 153
241 247 331 141 208 213 226 239 234 252 250 256 256 263 264 267 276 273 258 265 265 261 259 274 296 309 314 308 317 325 318 288 242 213 165 153 163 148
242 256 259 279 285 277 280 218 229 244 249 248 248 256 271 256 249 243 258 267 287 292 307 342 343 332 325 339 320 324 336 321 262 177 124 133 144 141
219 223 228 225 235 241 245 249 253 253 240 249 248 248 248 245 243 244 249 270 284 305 319 323 10 60 79 349 344 340 333 356 43 108 115 124 128 135
198 229 212 221 222 230 238 233 221 223 227 229 231 237 240 243 250 254 258 271 304 277 304 326 338 301 173 107 47 352 9 39 36 79 115 117 103 102
232 222 236 232 236 236 241 245 233 216 214 222 235 246 253 254 233 252 255 275 256 274 298 4 317 307 9 357 35 47 359 58 81 83 82 91 116 131
223 228 233 237 220 222 231 218 207 213 214 229 231 223 236 249 250 245 245 246 248 270 262 188 218 34 39 32 91 28 25 44 125 133 130 119 91 72
203 207 205 187 206 209 209 214 224 236 249 246 248 250 250 246 239 251 243 317 93 270 263 216 120 281 123 148 145 94 55 23 64 136 137 142 150 166
202 199 195 191 206 204 207 217 222 212 225 228 244 244 243 249 244 245 241 174 199 254 253 194 176 220 211 240 160 136 141 128 71 56 44 356 182 176
186 200 190 201 202 216 240 238 240 247 234 241 230 241 238 240 239 271 256 244 240 248 244 233 208 219 244 231 152 175 159 176 173 190 181 13 22 20